Location: Unspecified
(37.6226°N, 0.0000°E)
Time: 04:35:45
(UTC+00:00)

Vanguard 3 - All Passes

Search period start: 04 April 2026 00:00
Search period end: 14 April 2026 00:00
Orbit: 508 x 3205 km, 33.3° (Epoch: 28 March)

Date Brightness Start Highest point End Pass type
(mag) Time Alt. Az. Time Alt. Az. Time Alt. Az.
4 Apr - 02:16:30 10° SW 02:20:39 33° SSE 02:26:53 10° E visible
4 Apr - 04:25:29 10° WSW 04:31:25 65° S 04:42:06 10° E visible
4 Apr - 06:35:31 10° W 06:43:41 58° SSW 06:58:01 10° ESE daylight
4 Apr - 08:47:00 10° W 08:57:03 35° SSW 09:11:49 10° SSE daylight
4 Apr - 11:04:44 10° WSW 11:10:55 13° SW 11:17:49 10° SSW daylight
5 Apr - 00:57:31 10° S 00:59:49 14° SE 01:02:31 10° ESE visible
5 Apr - 03:04:57 10° WSW 03:09:41 52° SSE 03:17:33 10° E visible
5 Apr - 05:14:31 10° W 05:21:05 64° S 05:32:58 10° ESE visible
5 Apr - 07:25:00 10° W 07:33:43 45° SSW 07:48:06 10° SE daylight
5 Apr - 09:38:10 10° WSW 09:47:17 22° SSW 09:59:11 10° S daylight
6 Apr - 01:44:50 10° SW 01:48:31 30° SSE 01:53:41 10° E visible
6 Apr - 03:53:48 10° WSW 03:59:03 62° S 04:08:13 10° E visible
6 Apr - 06:03:42 10° W 06:10:53 54° SSW 06:23:34 10° ESE daylight
6 Apr - 08:14:58 10° W 08:23:50 32° SSW 08:37:05 10° SSE daylight
6 Apr - 10:33:29 10° SW 10:37:32 11° SW 10:41:57 10° SSW daylight
7 Apr - 00:25:51 10° S 00:27:40 13° SSE 00:29:40 10° ESE night (unlit)
7 Apr - 02:33:18 10° WSW 02:37:32 48° SSE 02:44:10 10° E visible
7 Apr - 04:42:48 10° W 04:48:36 60° S 04:58:52 10° ESE visible
7 Apr - 06:53:07 10° W 07:00:47 41° SSW 07:13:31 10° SE daylight
7 Apr - 09:06:15 10° WSW 09:14:01 20° SSW 09:24:12 10° S daylight
8 Apr - 01:13:06 10° SW 01:16:27 27° SSE 01:20:45 10° E visible
8 Apr - 03:22:08 10° WSW 03:26:48 59° S 03:34:36 10° E visible
8 Apr - 05:31:57 10° W 05:38:16 50° SSW 05:49:17 10° ESE daylight
8 Apr - 07:43:08 10° W 07:50:49 28° SSW 08:02:20 10° SSE daylight
8 Apr - 23:53:58 10° S 23:55:32 12° SSE 23:57:10 10° SE night (unlit)
9 Apr - 02:01:36 10° WSW 02:05:27 45° SSE 02:11:02 10° E visible
9 Apr - 04:11:09 10° W 04:16:15 56° S 04:25:02 10° ESE visible
9 Apr - 06:21:22 10° W 06:28:03 37° SSW 06:39:02 10° SE daylight
9 Apr - 08:34:38 10° WSW 08:40:57 17° SSW 08:49:05 10° S daylight
10 Apr - 00:41:16 10° SW 00:44:25 26° SSE 00:48:07 10° E night (unlit)
10 Apr - 02:50:29 10° WSW 02:54:40 55° S 03:01:14 10° E visible
10 Apr - 05:00:16 10° W 05:05:49 45° SSW 05:15:12 10° SE visible
10 Apr - 07:11:27 10° WSW 07:17:59 24° SSW 07:27:36 10° SSE daylight
10 Apr - 23:21:46 10° S 23:23:25 12° SSE 23:25:03 10° SE night (unlit)
11 Apr - 01:29:51 10° WSW 01:33:26 42° SSE 01:38:10 10° E visible
11 Apr - 03:39:29 10° W 03:44:02 52° S 03:51:25 10° ESE visible
11 Apr - 05:49:43 10° W 05:55:30 32° SSW 06:04:43 10° SE daylight
11 Apr - 08:03:27 10° SW 08:08:03 14° SSW 08:13:43 10° S daylight
12 Apr - 00:09:18 10° SW 00:12:24 25° SSE 00:15:43 10° ESE night (unlit)
12 Apr - 02:18:47 10° WSW 02:22:37 52° S 02:28:08 10° ESE visible
12 Apr - 04:28:38 10° W 04:33:29 40° SSW 04:41:20 10° SE visible
12 Apr - 06:39:56 10° WSW 06:45:20 20° SSW 06:52:57 10° SSE daylight
12 Apr - 22:49:13 10° S 22:51:18 14° SSE 22:53:17 10° SE night (unlit)
13 Apr - 00:57:59 10° WSW 01:01:27 40° S 01:05:33 10° E night (unlit)
13 Apr - 03:07:49 10° W 03:11:53 47° S 03:18:05 10° ESE visible
13 Apr - 05:18:09 10° WSW 05:23:04 27° SSW 05:30:35 10° SE daylight
13 Apr - 07:33:23 10° SW 07:35:19 11° SSW 07:37:27 10° SSW daylight
13 Apr - 23:37:07 10° SW 23:40:24 26° SSE 23:43:34 10° ESE night (unlit)
